Overview Statistics Trail Chart Weather Telemetry Raw packets
 

This is the latest recevied weather packets stored in our database for station/object GBTWP-2. If no packets are shown the sender has not sent any weather packets the latest 10 day(s).

<< 9 10 11 12 13 14 15 >>
Time Temp. Humidity Pressure Rain* Wind** Luminosity Snow
1788611220 19.44° C 89% 1018.6 hPa 0 mm - 50 W/m² -
1788610919 19.44° C 90% 1018.6 hPa 0 mm - 41 W/m² -
1788610620 18.89° C 90% 1018.5 hPa 0 mm - 29 W/m² -
1788610318 18.89° C 91% 1018.5 hPa 0 mm - 30 W/m² -
1788610020 18.89° C 92% 1018.5 hPa 0 mm - 23 W/m² -
1788609720 18.89° C 93% 1018.2 hPa 0 mm - 14 W/m² -
1788609420 18.89° C 94% 1018.2 hPa 0 mm - 12 W/m² -
1788609119 18.89° C 94% 1018.3 hPa 0 mm - 13 W/m² -
1788608819 18.89° C 94% 1018.2 hPa 0 mm - 13 W/m² -
1788608519 18.89° C 95% 1018.1 hPa 0 mm - 11 W/m² -
1788608220 18.89° C 95% 1018.1 hPa 0 mm - 10 W/m² -
1788607919 18.33° C 95% 1017.8 hPa 0 mm - 7 W/m² -
1788607620 18.33° C 95% 1017.9 hPa 0 mm - 6 W/m² -
1788607319 18.33° C 95% 1018.1 hPa 0 mm - 4 W/m² -
1788607020 18.33° C 95% 1018.1 hPa 0 mm - 3 W/m² -
1788606719 18.33° C 95% 1017.9 hPa 0 mm - 3 W/m² -
1788606420 18.33° C 95% 1018 hPa 0 mm - 2 W/m² -
1788606119 18.33° C 95% 1018.1 hPa 0 mm - 1 W/m² -
1788605820 18.33° C 95% 1017.9 hPa 0 mm - 0 W/m² -
1788605519 18.33° C 95% 1018.1 hPa 0 mm - 0 W/m² -
1788605220 18.33° C 95% 1018 hPa 0 mm - 0 W/m² -
1788604919 18.33° C 95% 1018 hPa 0 mm - 0 W/m² -
1788604620 18.33° C 95% 1018.1 hPa 0 mm - 0 W/m² -
1788604319 18.33° C 95% 1018.1 hPa 0 mm - 0 W/m² -
1788604020 18.33° C 95% 1017.9 hPa 0 mm - 0 W/m² -

* Rain latest hour (hover to see other rain measurements)
** Current wind speed in m/s (hover to see current wind gust speed)